Deridder, LA

5:20 PM CST on February 25, 2017 (GMT -0600)
Beauregard Parish

Weather History for KDRI - February, 2013

Change the Weather History Date:

Thursday, February 7, 2013

  Actual Average (KPOE) Record (KPOE)
Temperature  
Mean Temperature 58 °F -  
Max Temperature 62 °F 59 °F 81 °F (2017)
Min Temperature 53 °F 41 °F 28 °F (2014)
Degree Days  
Heating Degree Days 8    
Growing Degree Days 8 (Base 50)    
Moisture  
Dew Point 54 °F    
Average Humidity 86    
Maximum Humidity 94    
Minimum Humidity 77    
Precipitation  
Precipitation 0.00 in - - ()
Sea Level Pressure  
Sea Level Pressure 29.96 in    
Wind  
Wind Speed 1 mph (West)    
Max Wind Speed 7 mph    
Max Gust Speed -    
Visibility 9 miles    
Events      
Averages and records for this station are not official NWS values.
T = Trace of Precipitation, MM = Missing Value Source: NWS Daily Summary

Daily Weather History Graph

Daily Weather History Graph

Search for Another Location

Airport or City:

Trip Planner

Search our weather history database for the weather conditions in past years. The results will help you decide how hot, cold, wet, or windy it might be!

Date:

Astronomy

Feb. 07, 2013 Rise Set
Actual Time 7:00 AM CST 5:54 PM CST
Civil Twilight 6:35 AM CST 6:19 PM CST
Nautical Twilight 6:07 AM CST 6:48 PM CST
Astronomical Twilight 5:38 AM CST 7:16 PM CST
Moon 4:34 AM CST (2/7) 3:25 PM CST (2/7)
Length of Visible Light 11h 44m
Length of Day
10h 54m
Waning Crescent, 9% of the Moon is Illuminated
Feb 7
Waning Crescent
Feb 10
New
Feb 17
First Quarter
Feb 25
Full
Mar 4
Last Quarter

Hourly Weather History & Observations

Time (CST) Temp. Dew Point Humidity Pressure Visibility Wind Dir Wind Speed Gust Speed Precip Events Conditions
12:15 AM 59.0 °F 53.6 °F 82% 29.95 in 10.0 mi Calm Calm - N/A   Overcast
12:35 AM 57.2 °F 53.6 °F 88% 29.95 in 10.0 mi Calm Calm - N/A   Overcast
12:55 AM 55.4 °F 53.6 °F 94% 29.95 in 10.0 mi Calm Calm - N/A   Overcast
1:15 AM 55.4 °F 53.6 °F 94% 29.95 in 7.0 mi Calm Calm - N/A   Overcast
1:35 AM 55.4 °F 53.6 °F 94% 29.94 in 7.0 mi Calm Calm - N/A   Overcast
1:55 AM 55.4 °F 53.6 °F 94% 29.94 in 7.0 mi Calm Calm - N/A   Mostly Cloudy
2:15 AM 53.6 °F 51.8 °F 94% 29.93 in 4.0 mi Calm Calm - N/A   Overcast
2:35 AM 53.6 °F 51.8 °F 94% 29.93 in 3.0 mi Calm Calm - N/A   Overcast
2:55 AM 53.6 °F 51.8 °F 94% 29.94 in 5.0 mi Calm Calm - N/A   Overcast
3:15 AM 55.4 °F 53.6 °F 94% 29.93 in 7.0 mi Calm Calm - N/A   Overcast
3:35 AM 55.4 °F 53.6 °F 94% 29.92 in 7.0 mi North 4.6 mph - N/A   Overcast
3:55 AM 53.6 °F 51.8 °F 94% 29.92 in 7.0 mi North 3.5 mph - N/A   Overcast
4:15 AM 55.4 °F 53.6 °F 94% 29.92 in 7.0 mi North 4.6 mph - N/A   Overcast
4:35 AM 55.4 °F 53.6 °F 94% 29.92 in 10.0 mi Calm Calm - N/A   Overcast
4:55 AM 55.4 °F 53.6 °F 94% 29.92 in 10.0 mi Calm Calm - N/A   Overcast
5:15 AM 55.4 °F 53.6 °F 94% 29.92 in 10.0 mi Calm Calm - N/A   Overcast
5:35 AM 55.4 °F 53.6 °F 94% 29.93 in 10.0 mi Calm Calm - N/A   Overcast
5:55 AM 55.4 °F 53.6 °F 94% 29.94 in 10.0 mi Calm Calm - N/A   Overcast
6:15 AM 55.4 °F 53.6 °F 94% 29.94 in 10.0 mi Calm Calm - N/A   Overcast
6:35 AM 55.4 °F 53.6 °F 94% 29.94 in 7.0 mi Calm Calm - N/A   Overcast
6:55 AM 55.4 °F 53.6 °F 94% 29.95 in 7.0 mi Calm Calm - N/A   Overcast
7:15 AM 55.4 °F 53.6 °F 94% 29.95 in 7.0 mi Calm Calm - N/A   Overcast
7:35 AM 55.4 °F 53.6 °F 94% 29.95 in 7.0 mi Calm Calm - N/A   Overcast
7:55 AM 57.2 °F 53.6 °F 88% 29.97 in 10.0 mi Calm Calm - N/A   Overcast
8:15 AM 57.2 °F 53.6 °F 88% 29.98 in 10.0 mi Calm Calm - N/A   Overcast
8:35 AM 57.2 °F 53.6 °F 88% 29.99 in 10.0 mi Calm Calm - N/A   Overcast
8:55 AM 57.2 °F 53.6 °F 88% 29.99 in 10.0 mi SW 3.5 mph - N/A   Overcast
9:15 AM 57.2 °F 53.6 °F 88% 30.00 in 10.0 mi Calm Calm - N/A   Overcast
9:35 AM 59.0 °F 53.6 °F 82% 30.01 in 10.0 mi Calm Calm - N/A   Overcast
9:55 AM 59.0 °F 53.6 °F 82% 30.01 in 10.0 mi Calm Calm - N/A   Overcast
10:15 AM 59.0 °F 53.6 °F 82% 30.01 in 10.0 mi SSW 3.5 mph - N/A   Overcast
10:35 AM 59.0 °F 53.6 °F 82% 30.01 in 10.0 mi West 3.5 mph - N/A   Overcast
10:55 AM 59.0 °F 53.6 °F 82% 30.01 in 10.0 mi Calm Calm - N/A   Overcast
11:35 AM 59.0 °F 53.6 °F 82% 30.00 in 10.0 mi West 4.6 mph - N/A   Overcast
11:55 AM 59.0 °F 53.6 °F 82% 30.00 in 10.0 mi West 4.6 mph - N/A   Overcast
12:15 PM 59.0 °F 53.6 °F 82% 29.99 in 10.0 mi West 3.5 mph - N/A   Overcast
12:35 PM 59.0 °F 53.6 °F 82% 29.99 in 10.0 mi Calm Calm - N/A   Overcast
12:55 PM 60.8 °F 53.6 °F 77% 29.98 in 10.0 mi WNW 3.5 mph - N/A   Overcast
1:15 PM 60.8 °F 53.6 °F 77% 29.97 in 10.0 mi Calm Calm - N/A   Overcast
1:35 PM 60.8 °F 53.6 °F 77% 29.97 in 10.0 mi Calm Calm - N/A   Overcast
1:55 PM 60.8 °F 55.4 °F 82% 29.96 in 10.0 mi Calm Calm - N/A   Overcast
2:15 PM 60.8 °F 55.4 °F 82% 29.96 in 10.0 mi Calm Calm - N/A   Overcast
2:35 PM 60.8 °F 55.4 °F 82% 29.95 in 10.0 mi North 3.5 mph - N/A   Overcast
2:55 PM 60.8 °F 55.4 °F 82% 29.94 in 10.0 mi Calm Calm - N/A   Overcast
3:15 PM 62.6 °F 55.4 °F 77% 29.94 in 10.0 mi Calm Calm - N/A   Overcast
3:35 PM 62.6 °F 55.4 °F 77% 29.94 in 10.0 mi Calm Calm - N/A   Overcast
3:55 PM 62.6 °F 55.4 °F 77% 29.94 in 10.0 mi Calm Calm - N/A   Overcast
4:15 PM 62.6 °F 55.4 °F 77% 29.94 in 10.0 mi Calm Calm - N/A   Overcast
4:35 PM 62.6 °F 55.4 °F 77% 29.93 in 10.0 mi Calm Calm - N/A   Overcast
4:55 PM 62.6 °F 55.4 °F 77% 29.94 in 10.0 mi Calm Calm - N/A   Overcast
5:15 PM 62.6 °F 55.4 °F 77% 29.94 in 10.0 mi Calm Calm - N/A   Overcast
5:35 PM 62.6 °F 55.4 °F 77% 29.94 in 10.0 mi Calm Calm - N/A   Overcast
5:55 PM 62.6 °F 55.4 °F 77% 29.94 in 10.0 mi Calm Calm - N/A   Overcast
6:15 PM 62.6 °F 57.2 °F 82% 29.95 in 10.0 mi Calm Calm - N/A   Overcast
6:35 PM 62.6 °F 57.2 °F 82% 29.95 in 10.0 mi Calm Calm - N/A   Overcast
6:55 PM 60.8 °F 57.2 °F 88% 29.95 in 10.0 mi Calm Calm - N/A   Overcast
7:15 PM 60.8 °F 57.2 °F 88% 29.96 in 10.0 mi Calm Calm - N/A   Overcast
7:35 PM 60.8 °F 57.2 °F 88% 29.96 in 10.0 mi Calm Calm - N/A   Overcast
7:55 PM 60.8 °F 55.4 °F 82% 29.96 in 10.0 mi Calm Calm - N/A   Overcast
8:15 PM 60.8 °F 57.2 °F 88% 29.96 in 10.0 mi Calm Calm - N/A   Overcast
8:35 PM 60.8 °F 57.2 °F 88% 29.97 in 10.0 mi Calm Calm - N/A   Overcast
8:55 PM 60.8 °F 57.2 °F 88% 29.96 in 10.0 mi SE 5.8 mph - N/A   Overcast
9:15 PM 60.8 °F 55.4 °F 82% 29.96 in 10.0 mi SE 6.9 mph - N/A   Overcast
9:35 PM 60.8 °F 55.4 °F 82% 29.96 in 10.0 mi ESE 3.5 mph - N/A   Overcast
9:55 PM 60.8 °F 55.4 °F 82% 29.96 in 10.0 mi SE 3.5 mph - N/A   Overcast
10:15 PM 59.0 °F 55.4 °F 88% 29.96 in 10.0 mi Calm Calm - N/A   Overcast
10:35 PM 59.0 °F 55.4 °F 88% 29.97 in 7.0 mi Calm Calm - N/A   Overcast
10:55 PM 57.2 °F 55.4 °F 94% 29.99 in 5.0 mi Calm Calm - N/A   Overcast
11:15 PM 59.0 °F 55.4 °F 88% 29.99 in 7.0 mi Calm Calm - N/A   Overcast
11:55 PM 57.2 °F 55.4 °F 94% 29.99 in 4.0 mi Calm Calm - N/A   Overcast